<gpx creator="Cyclotour.ca" version="1.1" xmlns:gpsies="http://www.gpsies.com/GPX/1/0" xmlns:xsi="http://www.w3.org/2001/XMLSchema-instance" xmlns="http://www.topografix.com/GPX/1/1" xsi:schemaLocation="http://www.topografix.com/GPX/1/1 http://www.topografix.com/GPX/1/1/gpx.xsd http://www.gpsies.com/GPX/1/0 http://www.gpsies.com/gpsies.xsd">
<trk>
<name>MCC  Ste-Gertrude / Daveluyville   </name>
<trkseg>
<trkpt lat="46.297950000" lon="-72.270250000">
<ele>0</ele>
<time>2026-09-04T07:16:25Z</time>
</trkpt>
<trkpt lat="46.299160000" lon="-72.272010000">
<ele>0</ele>
<time>2026-09-04T07:16:26Z</time>
</trkpt>
<trkpt lat="46.299990000" lon="-72.273160000">
<ele>0</ele>
<time>2026-09-04T07:16:27Z</time>
</trkpt>
<trkpt lat="46.300490000" lon="-72.273840000">
<ele>0</ele>
<time>2026-09-04T07:16:28Z</time>
</trkpt>
<trkpt lat="46.300060000" lon="-72.274670000">
<ele>0</ele>
<time>2026-09-04T07:16:29Z</time>
</trkpt>
<trkpt lat="46.299560000" lon="-72.275640000">
<ele>0</ele>
<time>2026-09-04T07:16:30Z</time>
</trkpt>
<trkpt lat="46.299560000" lon="-72.275640000">
<ele>0</ele>
<time>2026-09-04T07:16:31Z</time>
</trkpt>
<trkpt lat="46.298200000" lon="-72.278360000">
<ele>0</ele>
<time>2026-09-04T07:16:32Z</time>
</trkpt>
<trkpt lat="46.297980000" lon="-72.278760000">
<ele>0</ele>
<time>2026-09-04T07:16:33Z</time>
</trkpt>
<trkpt lat="46.297300000" lon="-72.280050000">
<ele>0</ele>
<time>2026-09-04T07:16:34Z</time>
</trkpt>
<trkpt lat="46.295680000" lon="-72.282900000">
<ele>0</ele>
<time>2026-09-04T07:16:35Z</time>
</trkpt>
<trkpt lat="46.294650000" lon="-72.284770000">
<ele>0</ele>
<time>2026-09-04T07:16:36Z</time>
</trkpt>
<trkpt lat="46.294160000" lon="-72.285480000">
<ele>0</ele>
<time>2026-09-04T07:16:37Z</time>
</trkpt>
<trkpt lat="46.293660000" lon="-72.286130000">
<ele>0</ele>
<time>2026-09-04T07:16:38Z</time>
</trkpt>
<trkpt lat="46.293430000" lon="-72.286420000">
<ele>0</ele>
<time>2026-09-04T07:16:39Z</time>
</trkpt>
<trkpt lat="46.292540000" lon="-72.287400000">
<ele>0</ele>
<time>2026-09-04T07:16:40Z</time>
</trkpt>
<trkpt lat="46.292160000" lon="-72.287870000">
<ele>0</ele>
<time>2026-09-04T07:16:41Z</time>
</trkpt>
<trkpt lat="46.291370000" lon="-72.289020000">
<ele>0</ele>
<time>2026-09-04T07:16:42Z</time>
</trkpt>
<trkpt lat="46.289220000" lon="-72.292150000">
<ele>0</ele>
<time>2026-09-04T07:16:43Z</time>
</trkpt>
<trkpt lat="46.286050000" lon="-72.296770000">
<ele>0</ele>
<time>2026-09-04T07:16:44Z</time>
</trkpt>
<trkpt lat="46.285420000" lon="-72.297690000">
<ele>0</ele>
<time>2026-09-04T07:16:45Z</time>
</trkpt>
<trkpt lat="46.284650000" lon="-72.296610000">
<ele>0</ele>
<time>2026-09-04T07:16:46Z</time>
</trkpt>
<trkpt lat="46.284010000" lon="-72.295700000">
<ele>0</ele>
<time>2026-09-04T07:16:47Z</time>
</trkpt>
<trkpt lat="46.283490000" lon="-72.294980000">
<ele>0</ele>
<time>2026-09-04T07:16:48Z</time>
</trkpt>
<trkpt lat="46.281170000" lon="-72.291720000">
<ele>0</ele>
<time>2026-09-04T07:16:49Z</time>
</trkpt>
<trkpt lat="46.280640000" lon="-72.290980000">
<ele>0</ele>
<time>2026-09-04T07:16:50Z</time>
</trkpt>
<trkpt lat="46.280640000" lon="-72.290980000">
<ele>0</ele>
<time>2026-09-04T07:16:51Z</time>
</trkpt>
<trkpt lat="46.277950000" lon="-72.287170000">
<ele>0</ele>
<time>2026-09-04T07:16:52Z</time>
</trkpt>
<trkpt lat="46.275620000" lon="-72.283910000">
<ele>0</ele>
<time>2026-09-04T07:16:53Z</time>
</trkpt>
<trkpt lat="46.274160000" lon="-72.281890000">
<ele>0</ele>
<time>2026-09-04T07:16:54Z</time>
</trkpt>
<trkpt lat="46.273410000" lon="-72.280770000">
<ele>0</ele>
<time>2026-09-04T07:16:55Z</time>
</trkpt>
<trkpt lat="46.273030000" lon="-72.280230000">
<ele>0</ele>
<time>2026-09-04T07:16:56Z</time>
</trkpt>
<trkpt lat="46.268340000" lon="-72.273770000">
<ele>0</ele>
<time>2026-09-04T07:16:57Z</time>
</trkpt>
<trkpt lat="46.265220000" lon="-72.269440000">
<ele>0</ele>
<time>2026-09-04T07:16:58Z</time>
</trkpt>
<trkpt lat="46.259970000" lon="-72.262150000">
<ele>0</ele>
<time>2026-09-04T07:16:59Z</time>
</trkpt>
<trkpt lat="46.255580000" lon="-72.255990000">
<ele>0</ele>
<time>2026-09-04T07:17:00Z</time>
</trkpt>
<trkpt lat="46.253650000" lon="-72.253270000">
<ele>0</ele>
<time>2026-09-04T07:17:01Z</time>
</trkpt>
<trkpt lat="46.252000000" lon="-72.250860000">
<ele>0</ele>
<time>2026-09-04T07:17:02Z</time>
</trkpt>
<trkpt lat="46.250980000" lon="-72.249410000">
<ele>0</ele>
<time>2026-09-04T07:17:03Z</time>
</trkpt>
<trkpt lat="46.249690000" lon="-72.247600000">
<ele>0</ele>
<time>2026-09-04T07:17:04Z</time>
</trkpt>
<trkpt lat="46.248270000" lon="-72.245610000">
<ele>0</ele>
<time>2026-09-04T07:17:05Z</time>
</trkpt>
<trkpt lat="46.246600000" lon="-72.243240000">
<ele>0</ele>
<time>2026-09-04T07:17:06Z</time>
</trkpt>
<trkpt lat="46.244560000" lon="-72.240300000">
<ele>0</ele>
<time>2026-09-04T07:17:07Z</time>
</trkpt>
<trkpt lat="46.240760000" lon="-72.234850000">
<ele>0</ele>
<time>2026-09-04T07:17:08Z</time>
</trkpt>
<trkpt lat="46.240760000" lon="-72.234850000">
<ele>0</ele>
<time>2026-09-04T07:17:09Z</time>
</trkpt>
<trkpt lat="46.234600000" lon="-72.226110000">
<ele>0</ele>
<time>2026-09-04T07:17:10Z</time>
</trkpt>
<trkpt lat="46.233830000" lon="-72.225020000">
<ele>0</ele>
<time>2026-09-04T07:17:11Z</time>
</trkpt>
<trkpt lat="46.233580000" lon="-72.224680000">
<ele>0</ele>
<time>2026-09-04T07:17:12Z</time>
</trkpt>
<trkpt lat="46.234360000" lon="-72.223510000">
<ele>0</ele>
<time>2026-09-04T07:17:13Z</time>
</trkpt>
<trkpt lat="46.234990000" lon="-72.222580000">
<ele>0</ele>
<time>2026-09-04T07:17:14Z</time>
</trkpt>
<trkpt lat="46.236740000" lon="-72.219970000">
<ele>0</ele>
<time>2026-09-04T07:17:15Z</time>
</trkpt>
<trkpt lat="46.236750000" lon="-72.219960000">
<ele>0</ele>
<time>2026-09-04T07:17:16Z</time>
</trkpt>
<trkpt lat="46.236750000" lon="-72.219960000">
<ele>0</ele>
<time>2026-09-04T07:17:17Z</time>
</trkpt>
<trkpt lat="46.238750000" lon="-72.216980000">
<ele>0</ele>
<time>2026-09-04T07:17:18Z</time>
</trkpt>
<trkpt lat="46.240370000" lon="-72.214550000">
<ele>0</ele>
<time>2026-09-04T07:17:19Z</time>
</trkpt>
<trkpt lat="46.243640000" lon="-72.209710000">
<ele>0</ele>
<time>2026-09-04T07:17:20Z</time>
</trkpt>
<trkpt lat="46.246290000" lon="-72.205820000">
<ele>0</ele>
<time>2026-09-04T07:17:21Z</time>
</trkpt>
<trkpt lat="46.248210000" lon="-72.203070000">
<ele>0</ele>
<time>2026-09-04T07:17:22Z</time>
</trkpt>
<trkpt lat="46.251650000" lon="-72.198120000">
<ele>0</ele>
<time>2026-09-04T07:17:23Z</time>
</trkpt>
<trkpt lat="46.257740000" lon="-72.189310000">
<ele>0</ele>
<time>2026-09-04T07:17:24Z</time>
</trkpt>
<trkpt lat="46.259510000" lon="-72.186760000">
<ele>0</ele>
<time>2026-09-04T07:17:25Z</time>
</trkpt>
<trkpt lat="46.262930000" lon="-72.181730000">
<ele>0</ele>
<time>2026-09-04T07:17:26Z</time>
</trkpt>
<trkpt lat="46.267190000" lon="-72.175390000">
<ele>0</ele>
<time>2026-09-04T07:17:27Z</time>
</trkpt>
<trkpt lat="46.271580000" lon="-72.168860000">
<ele>0</ele>
<time>2026-09-04T07:17:28Z</time>
</trkpt>
<trkpt lat="46.272960000" lon="-72.166810000">
<ele>0</ele>
<time>2026-09-04T07:17:29Z</time>
</trkpt>
<trkpt lat="46.273400000" lon="-72.166120000">
<ele>0</ele>
<time>2026-09-04T07:17:30Z</time>
</trkpt>
<trkpt lat="46.273540000" lon="-72.165830000">
<ele>0</ele>
<time>2026-09-04T07:17:31Z</time>
</trkpt>
<trkpt lat="46.273660000" lon="-72.165440000">
<ele>0</ele>
<time>2026-09-04T07:17:32Z</time>
</trkpt>
<trkpt lat="46.273870000" lon="-72.164870000">
<ele>0</ele>
<time>2026-09-04T07:17:33Z</time>
</trkpt>
<trkpt lat="46.273980000" lon="-72.164590000">
<ele>0</ele>
<time>2026-09-04T07:17:34Z</time>
</trkpt>
<trkpt lat="46.274640000" lon="-72.163500000">
<ele>0</ele>
<time>2026-09-04T07:17:35Z</time>
</trkpt>
<trkpt lat="46.275170000" lon="-72.162730000">
<ele>0</ele>
<time>2026-09-04T07:17:36Z</time>
</trkpt>
<trkpt lat="46.276320000" lon="-72.161070000">
<ele>0</ele>
<time>2026-09-04T07:17:37Z</time>
</trkpt>
<trkpt lat="46.278490000" lon="-72.157980000">
<ele>0</ele>
<time>2026-09-04T07:17:38Z</time>
</trkpt>
<trkpt lat="46.281030000" lon="-72.154270000">
<ele>0</ele>
<time>2026-09-04T07:17:39Z</time>
</trkpt>
<trkpt lat="46.282300000" lon="-72.152430000">
<ele>0</ele>
<time>2026-09-04T07:17:40Z</time>
</trkpt>
<trkpt lat="46.285510000" lon="-72.147870000">
<ele>0</ele>
<time>2026-09-04T07:17:41Z</time>
</trkpt>
<trkpt lat="46.287450000" lon="-72.145110000">
<ele>0</ele>
<time>2026-09-04T07:17:42Z</time>
</trkpt>
<trkpt lat="46.287450000" lon="-72.145110000">
<ele>0</ele>
<time>2026-09-04T07:17:43Z</time>
</trkpt>
<trkpt lat="46.292430000" lon="-72.138010000">
<ele>0</ele>
<time>2026-09-04T07:17:44Z</time>
</trkpt>
<trkpt lat="46.291200000" lon="-72.136490000">
<ele>0</ele>
<time>2026-09-04T07:17:45Z</time>
</trkpt>
<trkpt lat="46.289720000" lon="-72.134650000">
<ele>0</ele>
<time>2026-09-04T07:17:46Z</time>
</trkpt>
<trkpt lat="46.289610000" lon="-72.134470000">
<ele>0</ele>
<time>2026-09-04T07:17:47Z</time>
</trkpt>
<trkpt lat="46.289480000" lon="-72.134110000">
<ele>0</ele>
<time>2026-09-04T07:17:48Z</time>
</trkpt>
<trkpt lat="46.289460000" lon="-72.133770000">
<ele>0</ele>
<time>2026-09-04T07:17:49Z</time>
</trkpt>
<trkpt lat="46.289500000" lon="-72.133390000">
<ele>0</ele>
<time>2026-09-04T07:17:50Z</time>
</trkpt>
<trkpt lat="46.289560000" lon="-72.133180000">
<ele>0</ele>
<time>2026-09-04T07:17:51Z</time>
</trkpt>
<trkpt lat="46.289650000" lon="-72.133000000">
<ele>0</ele>
<time>2026-09-04T07:17:52Z</time>
</trkpt>
<trkpt lat="46.289990000" lon="-72.132420000">
<ele>0</ele>
<time>2026-09-04T07:17:53Z</time>
</trkpt>
<trkpt lat="46.291010000" lon="-72.130690000">
<ele>0</ele>
<time>2026-09-04T07:17:54Z</time>
</trkpt>
<trkpt lat="46.292120000" lon="-72.128840000">
<ele>0</ele>
<time>2026-09-04T07:17:55Z</time>
</trkpt>
<trkpt lat="46.292120000" lon="-72.128840000">
<ele>0</ele>
<time>2026-09-04T07:17:56Z</time>
</trkpt>
<trkpt lat="46.293990000" lon="-72.125710000">
<ele>0</ele>
<time>2026-09-04T07:17:57Z</time>
</trkpt>
<trkpt lat="46.295120000" lon="-72.123770000">
<ele>0</ele>
<time>2026-09-04T07:17:58Z</time>
</trkpt>
<trkpt lat="46.295210000" lon="-72.123580000">
<ele>0</ele>
<time>2026-09-04T07:17:59Z</time>
</trkpt>
<trkpt lat="46.295390000" lon="-72.123070000">
<ele>0</ele>
<time>2026-09-04T07:18:00Z</time>
</trkpt>
<trkpt lat="46.295530000" lon="-72.122520000">
<ele>0</ele>
<time>2026-09-04T07:18:01Z</time>
</trkpt>
<trkpt lat="46.295600000" lon="-72.121970000">
<ele>0</ele>
<time>2026-09-04T07:18:02Z</time>
</trkpt>
<trkpt lat="46.295620000" lon="-72.121510000">
<ele>0</ele>
<time>2026-09-04T07:18:03Z</time>
</trkpt>
<trkpt lat="46.295610000" lon="-72.121150000">
<ele>0</ele>
<time>2026-09-04T07:18:04Z</time>
</trkpt>
<trkpt lat="46.295320000" lon="-72.117640000">
<ele>0</ele>
<time>2026-09-04T07:18:05Z</time>
</trkpt>
<trkpt lat="46.295060000" lon="-72.114800000">
<ele>0</ele>
<time>2026-09-04T07:18:06Z</time>
</trkpt>
<trkpt lat="46.295070000" lon="-72.114500000">
<ele>0</ele>
<time>2026-09-04T07:18:07Z</time>
</trkpt>
<trkpt lat="46.295140000" lon="-72.114300000">
<ele>0</ele>
<time>2026-09-04T07:18:08Z</time>
</trkpt>
<trkpt lat="46.295620000" lon="-72.113510000">
<ele>0</ele>
<time>2026-09-04T07:18:09Z</time>
</trkpt>
<trkpt lat="46.296930000" lon="-72.111360000">
<ele>0</ele>
<time>2026-09-04T07:18:10Z</time>
</trkpt>
<trkpt lat="46.297130000" lon="-72.111030000">
<ele>0</ele>
<time>2026-09-04T07:18:11Z</time>
</trkpt>
<trkpt lat="46.297210000" lon="-72.110700000">
<ele>0</ele>
<time>2026-09-04T07:18:12Z</time>
</trkpt>
<trkpt lat="46.296650000" lon="-72.110010000">
<ele>0</ele>
<time>2026-09-04T07:18:13Z</time>
</trkpt>
<trkpt lat="46.294660000" lon="-72.107370000">
<ele>0</ele>
<time>2026-09-04T07:18:14Z</time>
</trkpt>
<trkpt lat="46.294160000" lon="-72.106680000">
<ele>0</ele>
<time>2026-09-04T07:18:15Z</time>
</trkpt>
<trkpt lat="46.294140000" lon="-72.106590000">
<ele>0</ele>
<time>2026-09-04T07:18:16Z</time>
</trkpt>
<trkpt lat="46.294160000" lon="-72.106400000">
<ele>0</ele>
<time>2026-09-04T07:18:17Z</time>
</trkpt>
<trkpt lat="46.294920000" lon="-72.104380000">
<ele>0</ele>
<time>2026-09-04T07:18:18Z</time>
</trkpt>
<trkpt lat="46.296410000" lon="-72.100500000">
<ele>0</ele>
<time>2026-09-04T07:18:19Z</time>
</trkpt>
<trkpt lat="46.296780000" lon="-72.099610000">
<ele>0</ele>
<time>2026-09-04T07:18:20Z</time>
</trkpt>
<trkpt lat="46.297080000" lon="-72.099030000">
<ele>0</ele>
<time>2026-09-04T07:18:21Z</time>
</trkpt>
<trkpt lat="46.299310000" lon="-72.095550000">
<ele>0</ele>
<time>2026-09-04T07:18:22Z</time>
</trkpt>
<trkpt lat="46.301980000" lon="-72.091330000">
<ele>0</ele>
<time>2026-09-04T07:18:23Z</time>
</trkpt>
<trkpt lat="46.306480000" lon="-72.084230000">
<ele>0</ele>
<time>2026-09-04T07:18:24Z</time>
</trkpt>
<trkpt lat="46.307010000" lon="-72.083290000">
<ele>0</ele>
<time>2026-09-04T07:18:25Z</time>
</trkpt>
<trkpt lat="46.307450000" lon="-72.082350000">
<ele>0</ele>
<time>2026-09-04T07:18:26Z</time>
</trkpt>
<trkpt lat="46.308200000" lon="-72.080750000">
<ele>0</ele>
<time>2026-09-04T07:18:27Z</time>
</trkpt>
<trkpt lat="46.306900000" lon="-72.078990000">
<ele>0</ele>
<time>2026-09-04T07:18:28Z</time>
</trkpt>
<trkpt lat="46.306450000" lon="-72.078400000">
<ele>0</ele>
<time>2026-09-04T07:18:29Z</time>
</trkpt>
<trkpt lat="46.306450000" lon="-72.078400000">
<ele>0</ele>
<time>2026-09-04T07:18:30Z</time>
</trkpt>
<trkpt lat="46.302140000" lon="-72.072630000">
<ele>0</ele>
<time>2026-09-04T07:18:31Z</time>
</trkpt>
<trkpt lat="46.298710000" lon="-72.068070000">
<ele>0</ele>
<time>2026-09-04T07:18:32Z</time>
</trkpt>
<trkpt lat="46.296180000" lon="-72.064750000">
<ele>0</ele>
<time>2026-09-04T07:18:33Z</time>
</trkpt>
<trkpt lat="46.293310000" lon="-72.060880000">
<ele>0</ele>
<time>2026-09-04T07:18:34Z</time>
</trkpt>
<trkpt lat="46.292300000" lon="-72.059640000">
<ele>0</ele>
<time>2026-09-04T07:18:35Z</time>
</trkpt>
<trkpt lat="46.286350000" lon="-72.051760000">
<ele>0</ele>
<time>2026-09-04T07:18:36Z</time>
</trkpt>
<trkpt lat="46.282820000" lon="-72.047080000">
<ele>0</ele>
<time>2026-09-04T07:18:37Z</time>
</trkpt>
<trkpt lat="46.278180000" lon="-72.040930000">
<ele>0</ele>
<time>2026-09-04T07:18:38Z</time>
</trkpt>
<trkpt lat="46.273970000" lon="-72.035410000">
<ele>0</ele>
<time>2026-09-04T07:18:39Z</time>
</trkpt>
<trkpt lat="46.269480000" lon="-72.029450000">
<ele>0</ele>
<time>2026-09-04T07:18:40Z</time>
</trkpt>
<trkpt lat="46.267120000" lon="-72.026340000">
<ele>0</ele>
<time>2026-09-04T07:18:41Z</time>
</trkpt>
<trkpt lat="46.266850000" lon="-72.025990000">
<ele>0</ele>
<time>2026-09-04T07:18:42Z</time>
</trkpt>
<trkpt lat="46.266580000" lon="-72.025620000">
<ele>0</ele>
<time>2026-09-04T07:18:43Z</time>
</trkpt>
<trkpt lat="46.266330000" lon="-72.026020000">
<ele>0</ele>
<time>2026-09-04T07:18:44Z</time>
</trkpt>
<trkpt lat="46.266020000" lon="-72.026430000">
<ele>0</ele>
<time>2026-09-04T07:18:45Z</time>
</trkpt>
<trkpt lat="46.265810000" lon="-72.026710000">
<ele>0</ele>
<time>2026-09-04T07:18:46Z</time>
</trkpt>
<trkpt lat="46.265650000" lon="-72.026810000">
<ele>0</ele>
<time>2026-09-04T07:18:47Z</time>
</trkpt>
<trkpt lat="46.264980000" lon="-72.027230000">
<ele>0</ele>
<time>2026-09-04T07:18:48Z</time>
</trkpt>
<trkpt lat="46.264980000" lon="-72.027230000">
<ele>0</ele>
<time>2026-09-04T07:18:49Z</time>
</trkpt>
<trkpt lat="46.263460000" lon="-72.028180000">
<ele>0</ele>
<time>2026-09-04T07:18:50Z</time>
</trkpt>
<trkpt lat="46.263080000" lon="-72.028380000">
<ele>0</ele>
<time>2026-09-04T07:18:51Z</time>
</trkpt>
<trkpt lat="46.262800000" lon="-72.028560000">
<ele>0</ele>
<time>2026-09-04T07:18:52Z</time>
</trkpt>
<trkpt lat="46.262020000" lon="-72.029030000">
<ele>0</ele>
<time>2026-09-04T07:18:53Z</time>
</trkpt>
<trkpt lat="46.261870000" lon="-72.029130000">
<ele>0</ele>
<time>2026-09-04T07:18:54Z</time>
</trkpt>
<trkpt lat="46.261000000" lon="-72.030480000">
<ele>0</ele>
<time>2026-09-04T07:18:55Z</time>
</trkpt>
<trkpt lat="46.261000000" lon="-72.030480000">
<ele>0</ele>
<time>2026-09-04T07:18:56Z</time>
</trkpt>
<trkpt lat="46.260590000" lon="-72.031100000">
<ele>0</ele>
<time>2026-09-04T07:18:57Z</time>
</trkpt>
<trkpt lat="46.259050000" lon="-72.033450000">
<ele>0</ele>
<time>2026-09-04T07:18:58Z</time>
</trkpt>
<trkpt lat="46.257560000" lon="-72.035900000">
<ele>0</ele>
<time>2026-09-04T07:18:59Z</time>
</trkpt>
<trkpt lat="46.255410000" lon="-72.039400000">
<ele>0</ele>
<time>2026-09-04T07:19:00Z</time>
</trkpt>
<trkpt lat="46.252780000" lon="-72.043620000">
<ele>0</ele>
<time>2026-09-04T07:19:01Z</time>
</trkpt>
<trkpt lat="46.250820000" lon="-72.046730000">
<ele>0</ele>
<time>2026-09-04T07:19:02Z</time>
</trkpt>
<trkpt lat="46.246990000" lon="-72.052840000">
<ele>0</ele>
<time>2026-09-04T07:19:03Z</time>
</trkpt>
<trkpt lat="46.245260000" lon="-72.055490000">
<ele>0</ele>
<time>2026-09-04T07:19:04Z</time>
</trkpt>
<trkpt lat="46.244320000" lon="-72.057280000">
<ele>0</ele>
<time>2026-09-04T07:19:05Z</time>
</trkpt>
<trkpt lat="46.243960000" lon="-72.057830000">
<ele>0</ele>
<time>2026-09-04T07:19:06Z</time>
</trkpt>
<trkpt lat="46.243330000" lon="-72.058650000">
<ele>0</ele>
<time>2026-09-04T07:19:07Z</time>
</trkpt>
<trkpt lat="46.242930000" lon="-72.059080000">
<ele>0</ele>
<time>2026-09-04T07:19:08Z</time>
</trkpt>
<trkpt lat="46.242380000" lon="-72.059530000">
<ele>0</ele>
<time>2026-09-04T07:19:09Z</time>
</trkpt>
<trkpt lat="46.242010000" lon="-72.059770000">
<ele>0</ele>
<time>2026-09-04T07:19:10Z</time>
</trkpt>
<trkpt lat="46.241090000" lon="-72.060280000">
<ele>0</ele>
<time>2026-09-04T07:19:11Z</time>
</trkpt>
<trkpt lat="46.240470000" lon="-72.060660000">
<ele>0</ele>
<time>2026-09-04T07:19:12Z</time>
</trkpt>
<trkpt lat="46.240270000" lon="-72.060820000">
<ele>0</ele>
<time>2026-09-04T07:19:13Z</time>
</trkpt>
<trkpt lat="46.240130000" lon="-72.060970000">
<ele>0</ele>
<time>2026-09-04T07:19:14Z</time>
</trkpt>
<trkpt lat="46.239930000" lon="-72.061250000">
<ele>0</ele>
<time>2026-09-04T07:19:15Z</time>
</trkpt>
<trkpt lat="46.239820000" lon="-72.061500000">
<ele>0</ele>
<time>2026-09-04T07:19:16Z</time>
</trkpt>
<trkpt lat="46.239730000" lon="-72.061750000">
<ele>0</ele>
<time>2026-09-04T07:19:17Z</time>
</trkpt>
<trkpt lat="46.239610000" lon="-72.062230000">
<ele>0</ele>
<time>2026-09-04T07:19:18Z</time>
</trkpt>
<trkpt lat="46.239580000" lon="-72.062890000">
<ele>0</ele>
<time>2026-09-04T07:19:19Z</time>
</trkpt>
<trkpt lat="46.239530000" lon="-72.064050000">
<ele>0</ele>
<time>2026-09-04T07:19:20Z</time>
</trkpt>
<trkpt lat="46.239500000" lon="-72.064440000">
<ele>0</ele>
<time>2026-09-04T07:19:21Z</time>
</trkpt>
<trkpt lat="46.239440000" lon="-72.064820000">
<ele>0</ele>
<time>2026-09-04T07:19:22Z</time>
</trkpt>
<trkpt lat="46.239390000" lon="-72.065070000">
<ele>0</ele>
<time>2026-09-04T07:19:23Z</time>
</trkpt>
<trkpt lat="46.238950000" lon="-72.066500000">
<ele>0</ele>
<time>2026-09-04T07:19:24Z</time>
</trkpt>
<trkpt lat="46.238830000" lon="-72.066990000">
<ele>0</ele>
<time>2026-09-04T07:19:25Z</time>
</trkpt>
<trkpt lat="46.238370000" lon="-72.068680000">
<ele>0</ele>
<time>2026-09-04T07:19:26Z</time>
</trkpt>
<trkpt lat="46.238170000" lon="-72.069400000">
<ele>0</ele>
<time>2026-09-04T07:19:27Z</time>
</trkpt>
<trkpt lat="46.238070000" lon="-72.069620000">
<ele>0</ele>
<time>2026-09-04T07:19:28Z</time>
</trkpt>
<trkpt lat="46.237960000" lon="-72.069870000">
<ele>0</ele>
<time>2026-09-04T07:19:29Z</time>
</trkpt>
<trkpt lat="46.237740000" lon="-72.070230000">
<ele>0</ele>
<time>2026-09-04T07:19:30Z</time>
</trkpt>
<trkpt lat="46.237390000" lon="-72.070820000">
<ele>0</ele>
<time>2026-09-04T07:19:31Z</time>
</trkpt>
<trkpt lat="46.236910000" lon="-72.071610000">
<ele>0</ele>
<time>2026-09-04T07:19:32Z</time>
</trkpt>
<trkpt lat="46.236610000" lon="-72.072120000">
<ele>0</ele>
<time>2026-09-04T07:19:33Z</time>
</trkpt>
<trkpt lat="46.236610000" lon="-72.072120000">
<ele>0</ele>
<time>2026-09-04T07:19:34Z</time>
</trkpt>
<trkpt lat="46.235280000" lon="-72.074350000">
<ele>0</ele>
<time>2026-09-04T07:19:35Z</time>
</trkpt>
<trkpt lat="46.234890000" lon="-72.074810000">
<ele>0</ele>
<time>2026-09-04T07:19:36Z</time>
</trkpt>
<trkpt lat="46.234360000" lon="-72.075180000">
<ele>0</ele>
<time>2026-09-04T07:19:37Z</time>
</trkpt>
<trkpt lat="46.233840000" lon="-72.075380000">
<ele>0</ele>
<time>2026-09-04T07:19:38Z</time>
</trkpt>
<trkpt lat="46.233510000" lon="-72.075340000">
<ele>0</ele>
<time>2026-09-04T07:19:39Z</time>
</trkpt>
<trkpt lat="46.233310000" lon="-72.075260000">
<ele>0</ele>
<time>2026-09-04T07:19:40Z</time>
</trkpt>
<trkpt lat="46.232930000" lon="-72.075120000">
<ele>0</ele>
<time>2026-09-04T07:19:41Z</time>
</trkpt>
<trkpt lat="46.232100000" lon="-72.074750000">
<ele>0</ele>
<time>2026-09-04T07:19:42Z</time>
</trkpt>
<trkpt lat="46.231770000" lon="-72.074610000">
<ele>0</ele>
<time>2026-09-04T07:19:43Z</time>
</trkpt>
<trkpt lat="46.231520000" lon="-72.074560000">
<ele>0</ele>
<time>2026-09-04T07:19:44Z</time>
</trkpt>
<trkpt lat="46.231120000" lon="-72.074680000">
<ele>0</ele>
<time>2026-09-04T07:19:45Z</time>
</trkpt>
<trkpt lat="46.228970000" lon="-72.076040000">
<ele>0</ele>
<time>2026-09-04T07:19:46Z</time>
</trkpt>
<trkpt lat="46.228580000" lon="-72.076290000">
<ele>0</ele>
<time>2026-09-04T07:19:47Z</time>
</trkpt>
<trkpt lat="46.227750000" lon="-72.076830000">
<ele>0</ele>
<time>2026-09-04T07:19:48Z</time>
</trkpt>
<trkpt lat="46.227480000" lon="-72.077150000">
<ele>0</ele>
<time>2026-09-04T07:19:49Z</time>
</trkpt>
<trkpt lat="46.227190000" lon="-72.077470000">
<ele>0</ele>
<time>2026-09-04T07:19:50Z</time>
</trkpt>
<trkpt lat="46.226720000" lon="-72.077830000">
<ele>0</ele>
<time>2026-09-04T07:19:51Z</time>
</trkpt>
<trkpt lat="46.226010000" lon="-72.078030000">
<ele>0</ele>
<time>2026-09-04T07:19:52Z</time>
</trkpt>
<trkpt lat="46.224820000" lon="-72.078460000">
<ele>0</ele>
<time>2026-09-04T07:19:53Z</time>
</trkpt>
<trkpt lat="46.224570000" lon="-72.078560000">
<ele>0</ele>
<time>2026-09-04T07:19:54Z</time>
</trkpt>
<trkpt lat="46.224340000" lon="-72.078730000">
<ele>0</ele>
<time>2026-09-04T07:19:55Z</time>
</trkpt>
<trkpt lat="46.223730000" lon="-72.079420000">
<ele>0</ele>
<time>2026-09-04T07:19:56Z</time>
</trkpt>
<trkpt lat="46.223260000" lon="-72.079920000">
<ele>0</ele>
<time>2026-09-04T07:19:57Z</time>
</trkpt>
<trkpt lat="46.222130000" lon="-72.080650000">
<ele>0</ele>
<time>2026-09-04T07:19:58Z</time>
</trkpt>
<trkpt lat="46.222000000" lon="-72.080780000">
<ele>0</ele>
<time>2026-09-04T07:19:59Z</time>
</trkpt>
<trkpt lat="46.221790000" lon="-72.080980000">
<ele>0</ele>
<time>2026-09-04T07:20:00Z</time>
</trkpt>
<trkpt lat="46.220430000" lon="-72.082690000">
<ele>0</ele>
<time>2026-09-04T07:20:01Z</time>
</trkpt>
<trkpt lat="46.219820000" lon="-72.083480000">
<ele>0</ele>
<time>2026-09-04T07:20:02Z</time>
</trkpt>
<trkpt lat="46.219180000" lon="-72.084160000">
<ele>0</ele>
<time>2026-09-04T07:20:03Z</time>
</trkpt>
<trkpt lat="46.218930000" lon="-72.084370000">
<ele>0</ele>
<time>2026-09-04T07:20:04Z</time>
</trkpt>
<trkpt lat="46.218470000" lon="-72.084780000">
<ele>0</ele>
<time>2026-09-04T07:20:05Z</time>
</trkpt>
<trkpt lat="46.218160000" lon="-72.085050000">
<ele>0</ele>
<time>2026-09-04T07:20:06Z</time>
</trkpt>
<trkpt lat="46.217530000" lon="-72.085580000">
<ele>0</ele>
<time>2026-09-04T07:20:07Z</time>
</trkpt>
<trkpt lat="46.215300000" lon="-72.088000000">
<ele>0</ele>
<time>2026-09-04T07:20:08Z</time>
</trkpt>
<trkpt lat="46.214700000" lon="-72.088660000">
<ele>0</ele>
<time>2026-09-04T07:20:09Z</time>
</trkpt>
<trkpt lat="46.214700000" lon="-72.088660000">
<ele>0</ele>
<time>2026-09-04T07:20:10Z</time>
</trkpt>
<trkpt lat="46.213510000" lon="-72.089960000">
<ele>0</ele>
<time>2026-09-04T07:20:11Z</time>
</trkpt>
<trkpt lat="46.213180000" lon="-72.090420000">
<ele>0</ele>
<time>2026-09-04T07:20:12Z</time>
</trkpt>
<trkpt lat="46.212870000" lon="-72.091050000">
<ele>0</ele>
<time>2026-09-04T07:20:13Z</time>
</trkpt>
<trkpt lat="46.212330000" lon="-72.092390000">
<ele>0</ele>
<time>2026-09-04T07:20:14Z</time>
</trkpt>
<trkpt lat="46.211840000" lon="-72.093810000">
<ele>0</ele>
<time>2026-09-04T07:20:15Z</time>
</trkpt>
<trkpt lat="46.211230000" lon="-72.095380000">
<ele>0</ele>
<time>2026-09-04T07:20:16Z</time>
</trkpt>
<trkpt lat="46.210700000" lon="-72.096730000">
<ele>0</ele>
<time>2026-09-04T07:20:17Z</time>
</trkpt>
<trkpt lat="46.210610000" lon="-72.096970000">
<ele>0</ele>
<time>2026-09-04T07:20:18Z</time>
</trkpt>
<trkpt lat="46.210030000" lon="-72.097890000">
<ele>0</ele>
<time>2026-09-04T07:20:19Z</time>
</trkpt>
<trkpt lat="46.209640000" lon="-72.098410000">
<ele>0</ele>
<time>2026-09-04T07:20:20Z</time>
</trkpt>
<trkpt lat="46.209100000" lon="-72.098730000">
<ele>0</ele>
<time>2026-09-04T07:20:21Z</time>
</trkpt>
<trkpt lat="46.208680000" lon="-72.098830000">
<ele>0</ele>
<time>2026-09-04T07:20:22Z</time>
</trkpt>
<trkpt lat="46.207670000" lon="-72.098750000">
<ele>0</ele>
<time>2026-09-04T07:20:23Z</time>
</trkpt>
<trkpt lat="46.206950000" lon="-72.098740000">
<ele>0</ele>
<time>2026-09-04T07:20:24Z</time>
</trkpt>
<trkpt lat="46.204790000" lon="-72.098770000">
<ele>0</ele>
<time>2026-09-04T07:20:25Z</time>
</trkpt>
<trkpt lat="46.203160000" lon="-72.098790000">
<ele>0</ele>
<time>2026-09-04T07:20:26Z</time>
</trkpt>
<trkpt lat="46.201750000" lon="-72.099000000">
<ele>0</ele>
<time>2026-09-04T07:20:27Z</time>
</trkpt>
<trkpt lat="46.201390000" lon="-72.099080000">
<ele>0</ele>
<time>2026-09-04T07:20:28Z</time>
</trkpt>
<trkpt lat="46.201260000" lon="-72.099110000">
<ele>0</ele>
<time>2026-09-04T07:20:29Z</time>
</trkpt>
<trkpt lat="46.201040000" lon="-72.099210000">
<ele>0</ele>
<time>2026-09-04T07:20:30Z</time>
</trkpt>
<trkpt lat="46.200780000" lon="-72.099340000">
<ele>0</ele>
<time>2026-09-04T07:20:31Z</time>
</trkpt>
<trkpt lat="46.200490000" lon="-72.099580000">
<ele>0</ele>
<time>2026-09-04T07:20:32Z</time>
</trkpt>
<trkpt lat="46.200150000" lon="-72.099960000">
<ele>0</ele>
<time>2026-09-04T07:20:33Z</time>
</trkpt>
<trkpt lat="46.200130000" lon="-72.100010000">
<ele>0</ele>
<time>2026-09-04T07:20:34Z</time>
</trkpt>
<trkpt lat="46.199850000" lon="-72.100670000">
<ele>0</ele>
<time>2026-09-04T07:20:35Z</time>
</trkpt>
<trkpt lat="46.199470000" lon="-72.102170000">
<ele>0</ele>
<time>2026-09-04T07:20:36Z</time>
</trkpt>
<trkpt lat="46.199040000" lon="-72.104390000">
<ele>0</ele>
<time>2026-09-04T07:20:37Z</time>
</trkpt>
<trkpt lat="46.198880000" lon="-72.105140000">
<ele>0</ele>
<time>2026-09-04T07:20:38Z</time>
</trkpt>
<trkpt lat="46.198860000" lon="-72.105390000">
<ele>0</ele>
<time>2026-09-04T07:20:39Z</time>
</trkpt>
<trkpt lat="46.198850000" lon="-72.105550000">
<ele>0</ele>
<time>2026-09-04T07:20:40Z</time>
</trkpt>
<trkpt lat="46.198850000" lon="-72.105550000">
<ele>0</ele>
<time>2026-09-04T07:20:41Z</time>
</trkpt>
<trkpt lat="46.198820000" lon="-72.106350000">
<ele>0</ele>
<time>2026-09-04T07:20:42Z</time>
</trkpt>
<trkpt lat="46.198840000" lon="-72.107060000">
<ele>0</ele>
<time>2026-09-04T07:20:43Z</time>
</trkpt>
<trkpt lat="46.198880000" lon="-72.108420000">
<ele>0</ele>
<time>2026-09-04T07:20:44Z</time>
</trkpt>
<trkpt lat="46.198920000" lon="-72.108610000">
<ele>0</ele>
<time>2026-09-04T07:20:45Z</time>
</trkpt>
<trkpt lat="46.198950000" lon="-72.108790000">
<ele>0</ele>
<time>2026-09-04T07:20:46Z</time>
</trkpt>
<trkpt lat="46.199250000" lon="-72.109550000">
<ele>0</ele>
<time>2026-09-04T07:20:47Z</time>
</trkpt>
<trkpt lat="46.199300000" lon="-72.109880000">
<ele>0</ele>
<time>2026-09-04T07:20:48Z</time>
</trkpt>
<trkpt lat="46.199280000" lon="-72.110040000">
<ele>0</ele>
<time>2026-09-04T07:20:49Z</time>
</trkpt>
<trkpt lat="46.199040000" lon="-72.111560000">
<ele>0</ele>
<time>2026-09-04T07:20:50Z</time>
</trkpt>
<trkpt lat="46.199020000" lon="-72.111710000">
<ele>0</ele>
<time>2026-09-04T07:20:51Z</time>
</trkpt>
<trkpt lat="46.199020000" lon="-72.111710000">
<ele>0</ele>
<time>2026-09-04T07:20:52Z</time>
</trkpt>
<trkpt lat="46.198950000" lon="-72.112330000">
<ele>0</ele>
<time>2026-09-04T07:20:53Z</time>
</trkpt>
<trkpt lat="46.198980000" lon="-72.112580000">
<ele>0</ele>
<time>2026-09-04T07:20:54Z</time>
</trkpt>
<trkpt lat="46.199160000" lon="-72.113320000">
<ele>0</ele>
<time>2026-09-04T07:20:55Z</time>
</trkpt>
<trkpt lat="46.199320000" lon="-72.113780000">
<ele>0</ele>
<time>2026-09-04T07:20:56Z</time>
</trkpt>
<trkpt lat="46.199650000" lon="-72.114180000">
<ele>0</ele>
<time>2026-09-04T07:20:57Z</time>
</trkpt>
<trkpt lat="46.199890000" lon="-72.114420000">
<ele>0</ele>
<time>2026-09-04T07:20:58Z</time>
</trkpt>
<trkpt lat="46.200550000" lon="-72.114750000">
<ele>0</ele>
<time>2026-09-04T07:20:59Z</time>
</trkpt>
<trkpt lat="46.201340000" lon="-72.115440000">
<ele>0</ele>
<time>2026-09-04T07:21:00Z</time>
</trkpt>
<trkpt lat="46.201480000" lon="-72.115590000">
<ele>0</ele>
<time>2026-09-04T07:21:01Z</time>
</trkpt>
<trkpt lat="46.201870000" lon="-72.116130000">
<ele>0</ele>
<time>2026-09-04T07:21:02Z</time>
</trkpt>
<trkpt lat="46.201990000" lon="-72.116320000">
<ele>0</ele>
<time>2026-09-04T07:21:03Z</time>
</trkpt>
<trkpt lat="46.202090000" lon="-72.116530000">
<ele>0</ele>
<time>2026-09-04T07:21:04Z</time>
</trkpt>
<trkpt lat="46.202200000" lon="-72.116990000">
<ele>0</ele>
<time>2026-09-04T07:21:05Z</time>
</trkpt>
<trkpt lat="46.202280000" lon="-72.117530000">
<ele>0</ele>
<time>2026-09-04T07:21:06Z</time>
</trkpt>
<trkpt lat="46.202390000" lon="-72.118300000">
<ele>0</ele>
<time>2026-09-04T07:21:07Z</time>
</trkpt>
<trkpt lat="46.202390000" lon="-72.118350000">
<ele>0</ele>
<time>2026-09-04T07:21:08Z</time>
</trkpt>
<trkpt lat="46.202390000" lon="-72.118350000">
<ele>0</ele>
<time>2026-09-04T07:21:09Z</time>
</trkpt>
<trkpt lat="46.202520000" lon="-72.118970000">
<ele>0</ele>
<time>2026-09-04T07:21:10Z</time>
</trkpt>
<trkpt lat="46.202800000" lon="-72.119730000">
<ele>0</ele>
<time>2026-09-04T07:21:11Z</time>
</trkpt>
<trkpt lat="46.202980000" lon="-72.120180000">
<ele>0</ele>
<time>2026-09-04T07:21:12Z</time>
</trkpt>
<trkpt lat="46.203190000" lon="-72.120900000">
<ele>0</ele>
<time>2026-09-04T07:21:13Z</time>
</trkpt>
<trkpt lat="46.203530000" lon="-72.122100000">
<ele>0</ele>
<time>2026-09-04T07:21:14Z</time>
</trkpt>
<trkpt lat="46.203750000" lon="-72.122800000">
<ele>0</ele>
<time>2026-09-04T07:21:15Z</time>
</trkpt>
<trkpt lat="46.203940000" lon="-72.123250000">
<ele>0</ele>
<time>2026-09-04T07:21:16Z</time>
</trkpt>
<trkpt lat="46.204530000" lon="-72.124620000">
<ele>0</ele>
<time>2026-09-04T07:21:17Z</time>
</trkpt>
<trkpt lat="46.204890000" lon="-72.125140000">
<ele>0</ele>
<time>2026-09-04T07:21:18Z</time>
</trkpt>
<trkpt lat="46.205150000" lon="-72.125500000">
<ele>0</ele>
<time>2026-09-04T07:21:19Z</time>
</trkpt>
<trkpt lat="46.206090000" lon="-72.126700000">
<ele>0</ele>
<time>2026-09-04T07:21:20Z</time>
</trkpt>
<trkpt lat="46.207170000" lon="-72.128070000">
<ele>0</ele>
<time>2026-09-04T07:21:21Z</time>
</trkpt>
<trkpt lat="46.207580000" lon="-72.128580000">
<ele>0</ele>
<time>2026-09-04T07:21:22Z</time>
</trkpt>
<trkpt lat="46.208400000" lon="-72.129540000">
<ele>0</ele>
<time>2026-09-04T07:21:23Z</time>
</trkpt>
<trkpt lat="46.209050000" lon="-72.130370000">
<ele>0</ele>
<time>2026-09-04T07:21:24Z</time>
</trkpt>
<trkpt lat="46.209400000" lon="-72.131060000">
<ele>0</ele>
<time>2026-09-04T07:21:25Z</time>
</trkpt>
<trkpt lat="46.209800000" lon="-72.131930000">
<ele>0</ele>
<time>2026-09-04T07:21:26Z</time>
</trkpt>
<trkpt lat="46.210380000" lon="-72.132920000">
<ele>0</ele>
<time>2026-09-04T07:21:27Z</time>
</trkpt>
<trkpt lat="46.211070000" lon="-72.134050000">
<ele>0</ele>
<time>2026-09-04T07:21:28Z</time>
</trkpt>
<trkpt lat="46.211410000" lon="-72.134330000">
<ele>0</ele>
<time>2026-09-04T07:21:29Z</time>
</trkpt>
<trkpt lat="46.211590000" lon="-72.134420000">
<ele>0</ele>
<time>2026-09-04T07:21:30Z</time>
</trkpt>
<trkpt lat="46.212090000" lon="-72.134700000">
<ele>0</ele>
<time>2026-09-04T07:21:31Z</time>
</trkpt>
<trkpt lat="46.212410000" lon="-72.134940000">
<ele>0</ele>
<time>2026-09-04T07:21:32Z</time>
</trkpt>
<trkpt lat="46.212620000" lon="-72.135100000">
<ele>0</ele>
<time>2026-09-04T07:21:33Z</time>
</trkpt>
<trkpt lat="46.212710000" lon="-72.135210000">
<ele>0</ele>
<time>2026-09-04T07:21:34Z</time>
</trkpt>
<trkpt lat="46.213090000" lon="-72.135640000">
<ele>0</ele>
<time>2026-09-04T07:21:35Z</time>
</trkpt>
<trkpt lat="46.213290000" lon="-72.136000000">
<ele>0</ele>
<time>2026-09-04T07:21:36Z</time>
</trkpt>
<trkpt lat="46.213610000" lon="-72.136440000">
<ele>0</ele>
<time>2026-09-04T07:21:37Z</time>
</trkpt>
<trkpt lat="46.213610000" lon="-72.136440000">
<ele>0</ele>
<time>2026-09-04T07:21:38Z</time>
</trkpt>
<trkpt lat="46.214210000" lon="-72.137290000">
<ele>0</ele>
<time>2026-09-04T07:21:39Z</time>
</trkpt>
<trkpt lat="46.214920000" lon="-72.138250000">
<ele>0</ele>
<time>2026-09-04T07:21:40Z</time>
</trkpt>
<trkpt lat="46.215100000" lon="-72.138520000">
<ele>0</ele>
<time>2026-09-04T07:21:41Z</time>
</trkpt>
<trkpt lat="46.215150000" lon="-72.138650000">
<ele>0</ele>
<time>2026-09-04T07:21:42Z</time>
</trkpt>
<trkpt lat="46.215330000" lon="-72.138890000">
<ele>0</ele>
<time>2026-09-04T07:21:43Z</time>
</trkpt>
<trkpt lat="46.215620000" lon="-72.139040000">
<ele>0</ele>
<time>2026-09-04T07:21:44Z</time>
</trkpt>
<trkpt lat="46.215620000" lon="-72.139040000">
<ele>0</ele>
<time>2026-09-04T07:21:45Z</time>
</trkpt>
<trkpt lat="46.215660000" lon="-72.139070000">
<ele>0</ele>
<time>2026-09-04T07:21:46Z</time>
</trkpt>
<trkpt lat="46.215730000" lon="-72.139130000">
<ele>0</ele>
<time>2026-09-04T07:21:47Z</time>
</trkpt>
<trkpt lat="46.215830000" lon="-72.139290000">
<ele>0</ele>
<time>2026-09-04T07:21:48Z</time>
</trkpt>
<trkpt lat="46.216210000" lon="-72.139480000">
<ele>0</ele>
<time>2026-09-04T07:21:49Z</time>
</trkpt>
<trkpt lat="46.216210000" lon="-72.139480000">
<ele>0</ele>
<time>2026-09-04T07:21:50Z</time>
</trkpt>
<trkpt lat="46.216720000" lon="-72.139780000">
<ele>0</ele>
<time>2026-09-04T07:21:51Z</time>
</trkpt>
<trkpt lat="46.216940000" lon="-72.140010000">
<ele>0</ele>
<time>2026-09-04T07:21:52Z</time>
</trkpt>
<trkpt lat="46.217030000" lon="-72.140150000">
<ele>0</ele>
<time>2026-09-04T07:21:53Z</time>
</trkpt>
<trkpt lat="46.217130000" lon="-72.140420000">
<ele>0</ele>
<time>2026-09-04T07:21:54Z</time>
</trkpt>
<trkpt lat="46.217210000" lon="-72.140730000">
<ele>0</ele>
<time>2026-09-04T07:21:55Z</time>
</trkpt>
<trkpt lat="46.217280000" lon="-72.141160000">
<ele>0</ele>
<time>2026-09-04T07:21:56Z</time>
</trkpt>
<trkpt lat="46.217400000" lon="-72.141740000">
<ele>0</ele>
<time>2026-09-04T07:21:57Z</time>
</trkpt>
<trkpt lat="46.217540000" lon="-72.142270000">
<ele>0</ele>
<time>2026-09-04T07:21:58Z</time>
</trkpt>
<trkpt lat="46.217620000" lon="-72.142680000">
<ele>0</ele>
<time>2026-09-04T07:21:59Z</time>
</trkpt>
<trkpt lat="46.217640000" lon="-72.142970000">
<ele>0</ele>
<time>2026-09-04T07:22:00Z</time>
</trkpt>
<trkpt lat="46.217630000" lon="-72.143240000">
<ele>0</ele>
<time>2026-09-04T07:22:01Z</time>
</trkpt>
<trkpt lat="46.217560000" lon="-72.144070000">
<ele>0</ele>
<time>2026-09-04T07:22:02Z</time>
</trkpt>
<trkpt lat="46.217530000" lon="-72.144650000">
<ele>0</ele>
<time>2026-09-04T07:22:03Z</time>
</trkpt>
<trkpt lat="46.217540000" lon="-72.144810000">
<ele>0</ele>
<time>2026-09-04T07:22:04Z</time>
</trkpt>
<trkpt lat="46.217580000" lon="-72.145160000">
<ele>0</ele>
<time>2026-09-04T07:22:05Z</time>
</trkpt>
<trkpt lat="46.217720000" lon="-72.145640000">
<ele>0</ele>
<time>2026-09-04T07:22:06Z</time>
</trkpt>
<trkpt lat="46.218250000" lon="-72.147160000">
<ele>0</ele>
<time>2026-09-04T07:22:07Z</time>
</trkpt>
<trkpt lat="46.218410000" lon="-72.147650000">
<ele>0</ele>
<time>2026-09-04T07:22:08Z</time>
</trkpt>
<trkpt lat="46.218970000" lon="-72.149880000">
<ele>0</ele>
<time>2026-09-04T07:22:09Z</time>
</trkpt>
<trkpt lat="46.219070000" lon="-72.150330000">
<ele>0</ele>
<time>2026-09-04T07:22:10Z</time>
</trkpt>
<trkpt lat="46.219360000" lon="-72.151140000">
<ele>0</ele>
<time>2026-09-04T07:22:11Z</time>
</trkpt>
<trkpt lat="46.219600000" lon="-72.151620000">
<ele>0</ele>
<time>2026-09-04T07:22:12Z</time>
</trkpt>
<trkpt lat="46.219780000" lon="-72.151880000">
<ele>0</ele>
<time>2026-09-04T07:22:13Z</time>
</trkpt>
<trkpt lat="46.220140000" lon="-72.152350000">
<ele>0</ele>
<time>2026-09-04T07:22:14Z</time>
</trkpt>
<trkpt lat="46.220380000" lon="-72.152570000">
<ele>0</ele>
<time>2026-09-04T07:22:15Z</time>
</trkpt>
<trkpt lat="46.221010000" lon="-72.153100000">
<ele>0</ele>
<time>2026-09-04T07:22:16Z</time>
</trkpt>
<trkpt lat="46.223070000" lon="-72.154780000">
<ele>0</ele>
<time>2026-09-04T07:22:17Z</time>
</trkpt>
<trkpt lat="46.226240000" lon="-72.157360000">
<ele>0</ele>
<time>2026-09-04T07:22:18Z</time>
</trkpt>
<trkpt lat="46.227150000" lon="-72.158140000">
<ele>0</ele>
<time>2026-09-04T07:22:19Z</time>
</trkpt>
<trkpt lat="46.227840000" lon="-72.158810000">
<ele>0</ele>
<time>2026-09-04T07:22:20Z</time>
</trkpt>
<trkpt lat="46.228990000" lon="-72.160110000">
<ele>0</ele>
<time>2026-09-04T07:22:21Z</time>
</trkpt>
<trkpt lat="46.229920000" lon="-72.161160000">
<ele>0</ele>
<time>2026-09-04T07:22:22Z</time>
</trkpt>
<trkpt lat="46.231100000" lon="-72.162540000">
<ele>0</ele>
<time>2026-09-04T07:22:23Z</time>
</trkpt>
<trkpt lat="46.230720000" lon="-72.163090000">
<ele>0</ele>
<time>2026-09-04T07:22:24Z</time>
</trkpt>
<trkpt lat="46.230270000" lon="-72.163720000">
<ele>0</ele>
<time>2026-09-04T07:22:25Z</time>
</trkpt>
<trkpt lat="46.230270000" lon="-72.163720000">
<ele>0</ele>
<time>2026-09-04T07:22:26Z</time>
</trkpt>
<trkpt lat="46.229060000" lon="-72.165460000">
<ele>0</ele>
<time>2026-09-04T07:22:27Z</time>
</trkpt>
<trkpt lat="46.227030000" lon="-72.168420000">
<ele>0</ele>
<time>2026-09-04T07:22:28Z</time>
</trkpt>
<trkpt lat="46.223610000" lon="-72.173400000">
<ele>0</ele>
<time>2026-09-04T07:22:29Z</time>
</trkpt>
<trkpt lat="46.220430000" lon="-72.178000000">
<ele>0</ele>
<time>2026-09-04T07:22:30Z</time>
</trkpt>
<trkpt lat="46.217520000" lon="-72.182240000">
<ele>0</ele>
<time>2026-09-04T07:22:31Z</time>
</trkpt>
<trkpt lat="46.211440000" lon="-72.191070000">
<ele>0</ele>
<time>2026-09-04T07:22:32Z</time>
</trkpt>
<trkpt lat="46.211310000" lon="-72.191270000">
<ele>0</ele>
<time>2026-09-04T07:22:33Z</time>
</trkpt>
<trkpt lat="46.210830000" lon="-72.192070000">
<ele>0</ele>
<time>2026-09-04T07:22:34Z</time>
</trkpt>
<trkpt lat="46.211340000" lon="-72.192800000">
<ele>0</ele>
<time>2026-09-04T07:22:35Z</time>
</trkpt>
<trkpt lat="46.212110000" lon="-72.193900000">
<ele>0</ele>
<time>2026-09-04T07:22:36Z</time>
</trkpt>
<trkpt lat="46.212950000" lon="-72.195100000">
<ele>0</ele>
<time>2026-09-04T07:22:37Z</time>
</trkpt>
<trkpt lat="46.212950000" lon="-72.195100000">
<ele>0</ele>
<time>2026-09-04T07:22:38Z</time>
</trkpt>
<trkpt lat="46.219040000" lon="-72.203740000">
<ele>0</ele>
<time>2026-09-04T07:22:39Z</time>
</trkpt>
<trkpt lat="46.223750000" lon="-72.210450000">
<ele>0</ele>
<time>2026-09-04T07:22:40Z</time>
</trkpt>
<trkpt lat="46.226310000" lon="-72.214110000">
<ele>0</ele>
<time>2026-09-04T07:22:41Z</time>
</trkpt>
<trkpt lat="46.229320000" lon="-72.218410000">
<ele>0</ele>
<time>2026-09-04T07:22:42Z</time>
</trkpt>
<trkpt lat="46.230270000" lon="-72.219790000">
<ele>0</ele>
<time>2026-09-04T07:22:43Z</time>
</trkpt>
<trkpt lat="46.230660000" lon="-72.220550000">
<ele>0</ele>
<time>2026-09-04T07:22:44Z</time>
</trkpt>
<trkpt lat="46.232570000" lon="-72.223260000">
<ele>0</ele>
<time>2026-09-04T07:22:45Z</time>
</trkpt>
<trkpt lat="46.237940000" lon="-72.230840000">
<ele>0</ele>
<time>2026-09-04T07:22:46Z</time>
</trkpt>
<trkpt lat="46.242390000" lon="-72.237180000">
<ele>0</ele>
<time>2026-09-04T07:22:47Z</time>
</trkpt>
<trkpt lat="46.245190000" lon="-72.241220000">
<ele>0</ele>
<time>2026-09-04T07:22:48Z</time>
</trkpt>
<trkpt lat="46.247360000" lon="-72.244340000">
<ele>0</ele>
<time>2026-09-04T07:22:49Z</time>
</trkpt>
<trkpt lat="46.250070000" lon="-72.248140000">
<ele>0</ele>
<time>2026-09-04T07:22:50Z</time>
</trkpt>
<trkpt lat="46.251590000" lon="-72.250260000">
<ele>0</ele>
<time>2026-09-04T07:22:51Z</time>
</trkpt>
<trkpt lat="46.253140000" lon="-72.252530000">
<ele>0</ele>
<time>2026-09-04T07:22:52Z</time>
</trkpt>
<trkpt lat="46.254940000" lon="-72.255080000">
<ele>0</ele>
<time>2026-09-04T07:22:53Z</time>
</trkpt>
<trkpt lat="46.255970000" lon="-72.256540000">
<ele>0</ele>
<time>2026-09-04T07:22:54Z</time>
</trkpt>
<trkpt lat="46.258940000" lon="-72.260700000">
<ele>0</ele>
<time>2026-09-04T07:22:55Z</time>
</trkpt>
<trkpt lat="46.260490000" lon="-72.262870000">
<ele>0</ele>
<time>2026-09-04T07:22:56Z</time>
</trkpt>
<trkpt lat="46.266000000" lon="-72.270530000">
<ele>0</ele>
<time>2026-09-04T07:22:57Z</time>
</trkpt>
<trkpt lat="46.273290000" lon="-72.280590000">
<ele>0</ele>
<time>2026-09-04T07:22:58Z</time>
</trkpt>
<trkpt lat="46.274160000" lon="-72.281890000">
<ele>0</ele>
<time>2026-09-04T07:22:59Z</time>
</trkpt>
<trkpt lat="46.276770000" lon="-72.285500000">
<ele>0</ele>
<time>2026-09-04T07:23:00Z</time>
</trkpt>
<trkpt lat="46.281170000" lon="-72.291720000">
<ele>0</ele>
<time>2026-09-04T07:23:01Z</time>
</trkpt>
<trkpt lat="46.283490000" lon="-72.294980000">
<ele>0</ele>
<time>2026-09-04T07:23:02Z</time>
</trkpt>
<trkpt lat="46.284010000" lon="-72.295700000">
<ele>0</ele>
<time>2026-09-04T07:23:03Z</time>
</trkpt>
<trkpt lat="46.284650000" lon="-72.296610000">
<ele>0</ele>
<time>2026-09-04T07:23:04Z</time>
</trkpt>
<trkpt lat="46.285420000" lon="-72.297690000">
<ele>0</ele>
<time>2026-09-04T07:23:05Z</time>
</trkpt>
<trkpt lat="46.286050000" lon="-72.296770000">
<ele>0</ele>
<time>2026-09-04T07:23:06Z</time>
</trkpt>
<trkpt lat="46.286430000" lon="-72.296220000">
<ele>0</ele>
<time>2026-09-04T07:23:07Z</time>
</trkpt>
<trkpt lat="46.286940000" lon="-72.295480000">
<ele>0</ele>
<time>2026-09-04T07:23:08Z</time>
</trkpt>
<trkpt lat="46.287680000" lon="-72.294390000">
<ele>0</ele>
<time>2026-09-04T07:23:09Z</time>
</trkpt>
<trkpt lat="46.287680000" lon="-72.294390000">
<ele>0</ele>
<time>2026-09-04T07:23:10Z</time>
</trkpt>
<trkpt lat="46.292160000" lon="-72.287870000">
<ele>0</ele>
<time>2026-09-04T07:23:11Z</time>
</trkpt>
<trkpt lat="46.292540000" lon="-72.287400000">
<ele>0</ele>
<time>2026-09-04T07:23:12Z</time>
</trkpt>
<trkpt lat="46.293430000" lon="-72.286420000">
<ele>0</ele>
<time>2026-09-04T07:23:13Z</time>
</trkpt>
<trkpt lat="46.294160000" lon="-72.285480000">
<ele>0</ele>
<time>2026-09-04T07:23:14Z</time>
</trkpt>
<trkpt lat="46.294650000" lon="-72.284770000">
<ele>0</ele>
<time>2026-09-04T07:23:15Z</time>
</trkpt>
<trkpt lat="46.294880000" lon="-72.284370000">
<ele>0</ele>
<time>2026-09-04T07:23:16Z</time>
</trkpt>
<trkpt lat="46.296290000" lon="-72.281830000">
<ele>0</ele>
<time>2026-09-04T07:23:17Z</time>
</trkpt>
<trkpt lat="46.297300000" lon="-72.280050000">
<ele>0</ele>
<time>2026-09-04T07:23:18Z</time>
</trkpt>
<trkpt lat="46.297980000" lon="-72.278760000">
<ele>0</ele>
<time>2026-09-04T07:23:19Z</time>
</trkpt>
<trkpt lat="46.298200000" lon="-72.278360000">
<ele>0</ele>
<time>2026-09-04T07:23:20Z</time>
</trkpt>
<trkpt lat="46.299150000" lon="-72.276450000">
<ele>0</ele>
<time>2026-09-04T07:23:21Z</time>
</trkpt>
<trkpt lat="46.300490000" lon="-72.273840000">
<ele>0</ele>
<time>2026-09-04T07:23:22Z</time>
</trkpt>
<trkpt lat="46.299650000" lon="-72.272690000">
<ele>0</ele>
<time>2026-09-04T07:23:23Z</time>
</trkpt>
<trkpt lat="46.298500000" lon="-72.271050000">
<ele>0</ele>
<time>2026-09-04T07:23:24Z</time>
</trkpt>
<trkpt lat="46.297790000" lon="-72.270020000">
<ele>0</ele>
<time>2026-09-04T07:23:25Z</time>
</trkpt>
</trkseg>
</trk>
</gpx>
